TimeCST,TemperatureF,Dew PointF,Humidity,Sea Level PressureIn,VisibilityMPH,Wind Direction,Wind SpeedMPH,Gust SpeedMPH,PrecipitationIn,Events,Conditions,WindDirDegrees,DateUTC
12:52 AM,28.9,25.0,85,30.07,10.0,Calm,Calm,-,N/A,,Clear,0,2013-01-08 06:52:00
1:52 AM,28.9,25.0,85,30.09,10.0,Calm,Calm,-,N/A,,Clear,0,2013-01-08 07:52:00
2:52 AM,28.9,25.0,85,30.09,10.0,Calm,Calm,-,N/A,,Clear,0,2013-01-08 08:52:00
3:52 AM,28.0,25.0,88,30.08,10.0,SSE,3.5,-,N/A,,Clear,150,2013-01-08 09:52:00
4:52 AM,28.0,25.0,88,30.07,10.0,Calm,Calm,-,N/A,,Clear,0,2013-01-08 10:52:00
5:52 AM,27.0,24.1,89,30.07,10.0,Calm,Calm,-,N/A,,Clear,0,2013-01-08 11:52:00
6:52 AM,25.0,21.9,88,30.09,10.0,Calm,Calm,-,N/A,,Clear,0,2013-01-08 12:52:00
7:52 AM,25.0,21.9,88,30.09,10.0,Calm,Calm,-,N/A,,Clear,0,2013-01-08 13:52:00
8:52 AM,27.0,23.0,85,30.11,10.0,Calm,Calm,-,N/A,,Clear,0,2013-01-08 14:52:00
9:52 AM,32.0,27.0,82,30.10,10.0,SE,5.8,-,N/A,,Clear,140,2013-01-08 15:52:00
10:52 AM,36.0,28.0,73,30.09,10.0,SSE,6.9,-,N/A,,Clear,160,2013-01-08 16:52:00
11:52 AM,37.9,28.9,70,30.06,10.0,SSE,9.2,-,N/A,,Clear,160,2013-01-08 17:52:00
12:52 PM,41.0,28.9,62,30.02,10.0,South,13.8,-,N/A,,Clear,170,2013-01-08 18:52:00
1:52 PM,42.1,30.0,62,30.00,10.0,South,16.1,21.9,N/A,,Clear,180,2013-01-08 19:52:00
2:52 PM,42.1,30.0,62,29.99,10.0,South,17.3,-,N/A,,Clear,190,2013-01-08 20:52:00
3:52 PM,42.1,30.9,65,29.96,10.0,SSE,15.0,-,N/A,,Clear,160,2013-01-08 21:52:00
4:52 PM,41.0,30.9,67,29.97,10.0,SSE,10.4,-,N/A,,Overcast,160,2013-01-08 22:52:00
5:52 PM,39.9,30.9,70,30.00,10.0,South,12.7,-,N/A,,Mostly Cloudy,180,2013-01-08 23:52:00
6:52 PM,37.0,30.0,76,30.02,10.0,South,10.4,-,N/A,,Clear,180,2013-01-09 00:52:00
7:52 PM,37.9,30.0,73,30.02,10.0,South,8.1,-,N/A,,Clear,180,2013-01-09 01:52:00
8:52 PM,37.9,30.0,73,30.02,10.0,South,9.2,-,N/A,,Clear,180,2013-01-09 02:52:00
9:52 PM,39.9,30.0,68,30.02,10.0,SSW,9.2,-,N/A,,Clear,200,2013-01-09 03:52:00
10:52 PM,39.0,30.9,73,30.04,10.0,SW,9.2,-,N/A,,Clear,230,2013-01-09 04:52:00
11:52 PM,37.9,30.9,76,30.06,10.0,West,10.4,-,N/A,,Partly Cloudy,280,2013-01-09 05:52:00